TimePDT,TemperatureF,Dew PointF,Humidity,Sea Level PressureIn,VisibilityMPH,Wind Direction,Wind SpeedMPH,Gust SpeedMPH,PrecipitationIn,Events,Conditions,WindDirDegrees,DateUTC
12:15 AM,42.8,37.4,81,29.93,10.0,Calm,Calm,-,N/A,,Clear,0,2013-05-06 07:15:00
12:35 AM,42.8,37.4,81,29.94,10.0,Calm,Calm,-,N/A,,Clear,0,2013-05-06 07:35:00
12:55 AM,42.8,37.4,81,29.94,10.0,Calm,Calm,-,N/A,,Clear,0,2013-05-06 07:55:00
1:15 AM,42.8,37.4,81,29.94,10.0,Calm,Calm,-,N/A,,Clear,0,2013-05-06 08:15:00
1:35 AM,44.6,37.4,76,29.94,10.0,WNW,3.5,-,N/A,,Clear,290,2013-05-06 08:35:00
1:55 AM,41.0,35.6,81,29.94,10.0,Calm,Calm,-,N/A,,Clear,0,2013-05-06 08:55:00
2:15 AM,41.0,37.4,87,29.94,10.0,Calm,Calm,-,N/A,,Clear,0,2013-05-06 09:15:00
2:35 AM,41.0,39.2,93,29.94,10.0,Calm,Calm,-,N/A,,Clear,0,2013-05-06 09:35:00
2:55 AM,39.2,39.2,100,29.94,10.0,Calm,Calm,-,N/A,,Clear,0,2013-05-06 09:55:00
3:15 AM,37.4,37.4,100,29.95,10.0,Calm,Calm,-,N/A,,Clear,0,2013-05-06 10:15:00
3:35 AM,39.2,39.2,100,29.95,10.0,Calm,Calm,-,N/A,,Clear,0,2013-05-06 10:35:00
3:55 AM,39.2,39.2,100,29.95,10.0,Calm,Calm,-,N/A,,Clear,0,2013-05-06 10:55:00
4:15 AM,39.2,37.4,93,29.95,10.0,Calm,Calm,-,N/A,,Clear,0,2013-05-06 11:15:00
4:35 AM,37.4,37.4,100,29.95,10.0,Calm,Calm,-,N/A,,Clear,0,2013-05-06 11:35:00
4:55 AM,35.6,35.6,100,29.95,10.0,Calm,Calm,-,N/A,,Clear,0,2013-05-06 11:55:00
5:15 AM,37.4,37.4,100,29.96,10.0,Calm,Calm,-,N/A,,Clear,0,2013-05-06 12:15:00
5:35 AM,35.6,35.6,100,29.96,10.0,Calm,Calm,-,N/A,,Clear,0,2013-05-06 12:35:00
5:55 AM,37.4,37.4,100,29.96,10.0,Calm,Calm,-,N/A,,Clear,0,2013-05-06 12:55:00
6:15 AM,41.0,41.0,100,29.96,10.0,Calm,Calm,-,N/A,,Clear,0,2013-05-06 13:15:00
6:35 AM,41.0,41.0,100,29.96,10.0,Calm,Calm,-,N/A,,Clear,0,2013-05-06 13:35:00
6:55 AM,44.6,37.4,76,29.96,10.0,Calm,Calm,-,N/A,,Clear,0,2013-05-06 13:55:00
7:15 AM,46.4,37.4,71,29.96,10.0,Calm,Calm,-,N/A,,Clear,0,2013-05-06 14:15:00
7:35 AM,51.8,37.4,58,29.95,10.0,NE,3.5,-,N/A,,Clear,50,2013-05-06 14:35:00
7:55 AM,55.4,37.4,51,29.95,10.0,NNE,5.8,-,N/A,,Clear,20,2013-05-06 14:55:00
8:15 AM,59.0,37.4,45,29.94,10.0,NNE,9.2,-,N/A,,Clear,30,2013-05-06 15:15:00
8:35 AM,60.8,37.4,42,29.94,10.0,NE,13.8,-,N/A,,Clear,40,2013-05-06 15:35:00
8:55 AM,60.8,35.6,39,29.94,10.0,NNE,12.7,18.4,N/A,,Clear,30,2013-05-06 15:55:00
9:15 AM,62.6,35.6,37,29.93,10.0,NE,10.4,-,N/A,,Clear,50,2013-05-06 16:15:00
9:35 AM,62.6,37.4,39,29.93,10.0,ENE,8.1,-,N/A,,Clear,60,2013-05-06 16:35:00
9:55 AM,62.6,39.2,42,29.92,10.0,ESE,6.9,-,N/A,,Clear,110,2013-05-06 16:55:00
10:15 AM,62.6,41.0,45,29.92,10.0,ESE,5.8,-,N/A,,Clear,110,2013-05-06 17:15:00
10:35 AM,62.6,41.0,45,29.92,10.0,ESE,8.1,-,N/A,,Clear,120,2013-05-06 17:35:00
10:55 AM,62.6,41.0,45,29.91,10.0,East,8.1,-,N/A,,Clear,100,2013-05-06 17:55:00
11:15 AM,64.4,41.0,42,29.91,10.0,ESE,8.1,-,N/A,,Clear,110,2013-05-06 18:15:00
11:35 AM,66.2,39.2,37,29.90,10.0,East,8.1,-,N/A,,Clear,100,2013-05-06 18:35:00
11:55 AM,68.0,39.2,35,29.89,10.0,ESE,8.1,-,N/A,,Clear,110,2013-05-06 18:55:00
12:15 PM,69.8,39.2,33,29.88,10.0,ESE,6.9,-,N/A,,Clear,120,2013-05-06 19:15:00
12:35 PM,69.8,41.0,35,29.87,10.0,East,5.8,-,N/A,,Clear,100,2013-05-06 19:35:00
12:55 PM,73.4,39.2,29,29.86,5.0,ENE,4.6,-,N/A,,Haze,60,2013-05-06 19:55:00
1:15 PM,75.2,33.8,22,29.86,10.0,ESE,5.8,-,N/A,,Clear,120,2013-05-06 20:15:00
1:35 PM,75.2,32.0,21,29.85,10.0,ESE,4.6,-,N/A,,Clear,110,2013-05-06 20:35:00
1:55 PM,77.0,32.0,19,29.84,10.0,SE,5.8,-,N/A,,Clear,130,2013-05-06 20:55:00
2:15 PM,77.0,32.0,19,29.83,10.0,ESE,5.8,-,N/A,,Clear,110,2013-05-06 21:15:00
2:35 PM,77.0,32.0,19,29.83,10.0,SE,6.9,-,N/A,,Clear,130,2013-05-06 21:35:00
2:55 PM,78.8,33.8,20,29.82,10.0,SSE,5.8,-,N/A,,Clear,150,2013-05-06 21:55:00
3:15 PM,78.8,33.8,20,29.81,10.0,ESE,4.6,-,N/A,,Clear,120,2013-05-06 22:15:00
3:55 PM,78.8,32.0,18,29.79,10.0,SE,5.8,-,N/A,,Clear,130,2013-05-06 22:55:00
4:15 PM,78.8,32.0,18,29.79,10.0,ESE,4.6,-,N/A,,Clear,110,2013-05-06 23:15:00
4:35 PM,78.8,33.8,20,29.78,10.0,ESE,4.6,-,N/A,,Clear,120,2013-05-06 23:35:00
4:55 PM,78.8,32.0,18,29.78,10.0,SE,6.9,-,N/A,,Clear,130,2013-05-06 23:55:00
5:15 PM,78.8,33.8,20,29.76,10.0,SE,8.1,-,N/A,,Clear,130,2013-05-07 00:15:00
5:35 PM,78.8,32.0,18,29.76,10.0,SE,5.8,-,N/A,,Clear,130,2013-05-07 00:35:00
5:55 PM,78.8,32.0,18,29.76,10.0,SE,5.8,-,N/A,,Clear,140,2013-05-07 00:55:00
6:15 PM,78.8,32.0,18,29.75,10.0,Calm,Calm,-,N/A,,Clear,0,2013-05-07 01:15:00
6:35 PM,77.0,41.0,28,29.75,10.0,Calm,Calm,-,N/A,,Clear,0,2013-05-07 01:35:00
6:55 PM,73.4,42.8,33,29.75,7.0,Calm,Calm,-,N/A,,Clear,0,2013-05-07 01:55:00
7:15 PM,69.8,37.4,31,29.75,10.0,Calm,Calm,-,N/A,,Clear,0,2013-05-07 02:15:00
7:35 PM,64.4,42.8,45,29.75,10.0,Calm,Calm,-,N/A,,Clear,0,2013-05-07 02:35:00
7:55 PM,62.6,42.8,48,29.74,10.0,Calm,Calm,-,N/A,,Clear,0,2013-05-07 02:55:00
8:15 PM,60.8,42.8,52,29.75,10.0,Calm,Calm,-,N/A,,Clear,0,2013-05-07 03:15:00
8:35 PM,57.2,44.6,63,29.75,10.0,WNW,4.6,-,N/A,,Clear,290,2013-05-07 03:35:00
8:55 PM,57.2,41.0,55,29.76,10.0,Calm,Calm,-,N/A,,Clear,0,2013-05-07 03:55:00
9:15 PM,55.4,42.8,63,29.77,10.0,Calm,Calm,-,N/A,,Clear,0,2013-05-07 04:15:00
9:35 PM,53.6,42.8,67,29.78,10.0,Calm,Calm,-,N/A,,Clear,0,2013-05-07 04:35:00
9:55 PM,51.8,42.8,71,29.78,10.0,Calm,Calm,-,N/A,,Clear,0,2013-05-07 04:55:00
10:15 PM,50.0,42.8,76,29.78,10.0,Calm,Calm,-,N/A,,Clear,0,2013-05-07 05:15:00
10:35 PM,50.0,41.0,71,29.78,10.0,Calm,Calm,-,N/A,,Clear,0,2013-05-07 05:35:00
10:55 PM,50.0,41.0,71,29.79,10.0,Calm,Calm,-,N/A,,Clear,0,2013-05-07 05:55:00
11:15 PM,50.0,41.0,71,29.80,10.0,Calm,Calm,-,N/A,,Clear,0,2013-05-07 06:15:00
11:35 PM,48.2,41.0,76,29.80,10.0,Calm,Calm,-,N/A,,Clear,0,2013-05-07 06:35:00
11:55 PM,46.4,41.0,81,29.80,10.0,Calm,Calm,-,N/A,,Clear,0,2013-05-07 06:55:00